BEL9HA LPMA-EBBR

Flight info

Callsign BEL9HA
Flight time 3h 20m
Altitude 38000
Route DEGUN DCT PECKY DCT OBESA DCT XANEL DCT DEMOS DCT LOTEE DCT AZFIC DCT ERIGA DCT GODIX DCT PODEM DCT VEKIN DCT ARVOL
Aircraft A320/M-DE3FGHIJ1LORVWY/H

Departure

Time 2026-05-04 11:49
Airport Cristiano Ronaldo International Airport (LPMA)

Arrival

Time 2026-05-04 15:09
Airport Brussels Airport (EBBR)
Time Latitude Longitude Altitude Speed Heading
2026-05-04 11:33 32.69437 -16.77556 176 ft 0 kts 138°
2026-05-04 11:38 32.69440 -16.77559 176 ft 3 kts 140°
2026-05-04 11:39 32.69462 -16.77577 176 ft 4 kts 158°
2026-05-04 11:39 32.69488 -16.77584 176 ft 4 kts 181°
2026-05-04 11:40 32.69518 -16.77573 176 ft 0 kts 226°
2026-05-04 11:43 32.69517 -16.77575 176 ft 3 kts 226°
2026-05-04 11:44 32.69496 -16.77600 176 ft 4 kts 226°
2026-05-04 11:44 32.69466 -16.77638 176 ft 10 kts 227°
2026-05-04 11:44 32.69420 -16.77697 176 ft 13 kts 227°
2026-05-04 11:44 32.69360 -16.77771 176 ft 11 kts 226°
2026-05-04 11:45 32.69310 -16.77834 176 ft 10 kts 229°
2026-05-04 11:45 32.69289 -16.77900 176 ft 8 kts 265°
2026-05-04 11:45 32.69289 -16.77970 176 ft 9 kts 269°
2026-05-04 11:45 32.69260 -16.78067 176 ft 16 kts 231°
2026-05-04 11:46 32.69171 -16.78172 176 ft 20 kts 224°
2026-05-04 11:46 32.69070 -16.78289 176 ft 21 kts 224°
2026-05-04 11:46 32.68973 -16.78386 176 ft 17 kts 204°
2026-05-04 11:46 32.68891 -16.78438 176 ft 11 kts 256°
2026-05-04 11:47 32.68936 -16.78449 176 ft 8 kts 46°
2026-05-04 11:47 32.68958 -16.78418 176 ft 7 kts 48°
2026-05-04 11:47 32.68974 -16.78398 176 ft 0 kts 45°
2026-05-04 11:48 32.68975 -16.78397 176 ft 1 kts 45°
2026-05-04 11:48 32.69112 -16.78235 176 ft 65 kts 45°
2026-05-04 11:48 32.69601 -16.77662 176 ft 129 kts 44°
2026-05-04 11:48 32.70366 -16.76774 259 ft 170 kts 44°
2026-05-04 11:49 32.71254 -16.75766 735 ft 180 kts 47°
2026-05-04 11:49 32.71781 -16.74470 1430 ft 176 kts 86°
2026-05-04 11:49 32.71544 -16.73073 2070 ft 175 kts 116°
2026-05-04 11:49 32.71020 -16.71681 2373 ft 196 kts 115°
2026-05-04 11:50 32.70439 -16.70119 2622 ft 219 kts 115°
2026-05-04 11:50 32.69794 -16.68371 2925 ft 243 kts 115°
2026-05-04 11:50 32.69090 -16.66449 3407 ft 261 kts 114°
2026-05-04 11:50 32.68363 -16.64446 4169 ft 267 kts 114°
2026-05-04 11:51 32.67628 -16.62403 4998 ft 271 kts 114°
2026-05-04 11:51 32.66884 -16.60327 5787 ft 275 kts 114°
2026-05-04 11:51 32.66152 -16.58211 6599 ft 279 kts 108°
2026-05-04 11:51 32.65886 -16.55915 7315 ft 285 kts 87°
2026-05-04 11:52 32.66318 -16.53638 8025 ft 289 kts 65°
2026-05-04 11:52 32.67428 -16.51645 8753 ft 292 kts 44°
2026-05-04 11:52 32.68901 -16.49964 9508 ft 295 kts 42°
2026-05-04 11:52 32.70401 -16.48273 10229 ft 300 kts 42°
2026-05-04 11:53 32.71961 -16.46512 10502 ft 321 kts 42°
2026-05-04 11:53 32.73635 -16.44614 10664 ft 344 kts 42°
2026-05-04 11:53 32.75393 -16.42611 11104 ft 355 kts 42°
2026-05-04 11:53 32.77190 -16.40558 11711 ft 360 kts 42°
2026-05-04 11:55 32.90336 -16.25491 16010 ft 387 kts 42°
2026-05-04 11:55 32.92282 -16.23260 16617 ft 391 kts 42°
2026-05-04 11:56 32.94251 -16.20993 17202 ft 395 kts 42°
2026-05-04 11:56 32.96233 -16.18712 17751 ft 398 kts 42°
2026-05-04 11:56 32.98233 -16.16410 18287 ft 402 kts 42°
2026-05-04 11:56 33.00250 -16.14086 18765 ft 405 kts 42°
2026-05-04 11:57 33.02284 -16.11741 19232 ft 408 kts 42°
2026-05-04 11:57 33.04331 -16.09383 19701 ft 412 kts 41°
2026-05-04 11:57 33.06406 -16.06997 20154 ft 415 kts 41°
2026-05-04 11:57 33.08493 -16.04595 20631 ft 419 kts 41°
2026-05-04 11:58 33.10595 -16.02171 21093 ft 422 kts 41°
2026-05-04 11:58 33.12716 -15.99718 21554 ft 426 kts 41°
2026-05-04 11:58 33.14849 -15.97248 22001 ft 429 kts 41°
2026-05-04 11:58 33.16998 -15.94757 22450 ft 432 kts 41°
2026-05-04 11:59 33.19162 -15.92248 22901 ft 435 kts 41°
2026-05-04 11:59 33.21335 -15.89726 23336 ft 438 kts 41°
2026-05-04 11:59 33.23528 -15.87181 23742 ft 441 kts 41°
2026-05-04 11:59 33.25738 -15.84617 24099 ft 444 kts 41°
2026-05-04 12:00 33.27937 -15.82064 24469 ft 447 kts 41°
2026-05-04 12:00 33.30173 -15.79464 24813 ft 450 kts 41°
2026-05-04 12:00 33.32422 -15.76848 25156 ft 452 kts 41°
2026-05-04 12:00 33.34682 -15.74217 25485 ft 455 kts 41°
2026-05-04 12:01 33.36950 -15.71571 25806 ft 457 kts 41°
2026-05-04 12:01 33.39288 -15.68981 26116 ft 457 kts 36°
2026-05-04 12:02 33.56938 -15.61548 28008 ft 455 kts
2026-05-04 12:03 33.60023 -15.60665 28294 ft 457 kts
2026-05-04 12:03 33.63120 -15.59775 28568 ft 459 kts
2026-05-04 12:03 33.66230 -15.58881 28833 ft 460 kts
2026-05-04 12:03 33.69353 -15.57987 29099 ft 462 kts
2026-05-04 12:04 33.72488 -15.57091 29352 ft 464 kts
2026-05-04 12:04 33.75633 -15.56191 29642 ft 465 kts
2026-05-04 12:04 33.78789 -15.55284 29880 ft 467 kts
2026-05-04 12:04 33.81914 -15.54383 30109 ft 469 kts
2026-05-04 12:05 33.85098 -15.53463 30318 ft 470 kts
2026-05-04 12:05 33.88285 -15.52543 30499 ft 472 kts
2026-05-04 12:05 33.91481 -15.51622 30699 ft 472 kts
2026-05-04 12:05 33.94681 -15.50701 30975 ft 471 kts
2026-05-04 12:06 33.97868 -15.49786 31243 ft 470 kts
2026-05-04 12:06 34.01050 -15.48874 31531 ft 469 kts
2026-05-04 12:06 34.04223 -15.47961 31815 ft 468 kts
2026-05-04 12:06 34.07388 -15.47049 32092 ft 467 kts
2026-05-04 12:07 34.10546 -15.46137 32361 ft 466 kts
2026-05-04 12:07 34.13706 -15.45222 32620 ft 465 kts
2026-05-04 12:07 34.16853 -15.44311 32906 ft 465 kts
2026-05-04 12:07 34.19994 -15.43402 33174 ft 464 kts
2026-05-04 12:08 34.23130 -15.42493 33433 ft 463 kts
2026-05-04 12:08 34.26262 -15.41585 33692 ft 462 kts
2026-05-04 12:08 34.29351 -15.40685 34005 ft 461 kts
2026-05-04 12:08 34.32466 -15.39774 34275 ft 460 kts
2026-05-04 12:09 34.35583 -15.38865 34470 ft 460 kts
2026-05-04 12:09 34.38693 -15.37959 34665 ft 460 kts
2026-05-04 12:09 34.41814 -15.37056 34844 ft 460 kts
2026-05-04 12:09 34.44930 -15.36149 35019 ft 461 kts
2026-05-04 12:10 34.48049 -15.35232 35186 ft 461 kts
2026-05-04 12:10 34.51171 -15.34311 35345 ft 462 kts
2026-05-04 12:10 34.54262 -15.33156 35528 ft 469 kts 15°
2026-05-04 12:10 34.57255 -15.31675 35698 ft 470 kts 16°
2026-05-04 12:11 34.60280 -15.30167 35854 ft 470 kts 16°
2026-05-04 12:11 34.63307 -15.28655 36005 ft 470 kts 16°
2026-05-04 12:11 34.66341 -15.27137 36151 ft 471 kts 16°
2026-05-04 12:11 34.69370 -15.25616 36295 ft 471 kts 16°
2026-05-04 12:12 34.72408 -15.24091 36427 ft 472 kts 16°
2026-05-04 12:12 34.75442 -15.22568 36558 ft 472 kts 16°
2026-05-04 12:12 34.78478 -15.21044 36686 ft 472 kts 16°
2026-05-04 12:12 34.81514 -15.19521 36881 ft 471 kts 16°
2026-05-04 12:13 34.84502 -15.18016 37033 ft 471 kts 16°
2026-05-04 12:14 35.05661 -15.07338 37979 ft 469 kts 17°
2026-05-04 12:15 35.08670 -15.05815 38143 ft 468 kts 17°
2026-05-04 12:15 35.11680 -15.04293 38205 ft 469 kts 17°
2026-05-04 12:15 35.17744 -15.01219 38201 ft 473 kts 17°
2026-05-04 12:16 35.23823 -14.98139 38198 ft 473 kts 17°
2026-05-04 12:16 35.29895 -14.95047 38198 ft 473 kts 17°
2026-05-04 12:17 35.35960 -14.91950 38182 ft 471 kts 17°
2026-05-04 12:17 35.42011 -14.88860 38194 ft 471 kts 17°
2026-05-04 12:18 35.48058 -14.85764 38216 ft 471 kts 17°
2026-05-04 12:18 35.54078 -14.82685 38220 ft 471 kts 17°
2026-05-04 12:19 35.60130 -14.79585 38246 ft 471 kts 17°
2026-05-04 12:19 35.66178 -14.76481 38235 ft 470 kts 17°
2026-05-04 12:20 35.72213 -14.73373 38224 ft 470 kts 17°
2026-05-04 12:20 35.78238 -14.70265 38225 ft 469 kts 17°
2026-05-04 12:21 35.84260 -14.67152 38266 ft 469 kts 17°
2026-05-04 12:21 35.90251 -14.64044 38222 ft 465 kts 16°
2026-05-04 12:22 35.96222 -14.60954 38224 ft 465 kts 16°
2026-05-04 12:22 36.02194 -14.57861 38223 ft 465 kts 16°
2026-05-04 12:23 36.08164 -14.54757 38223 ft 465 kts 16°
2026-05-04 12:23 36.14128 -14.51659 38230 ft 464 kts 16°
2026-05-04 12:24 36.20037 -14.48585 38223 ft 463 kts 16°
2026-05-04 12:24 36.26012 -14.45462 38221 ft 463 kts 16°
2026-05-04 12:25 36.31900 -14.42370 38224 ft 463 kts 16°
2026-05-04 12:25 36.37845 -14.39252 38244 ft 463 kts 17°
2026-05-04 12:26 36.43777 -14.36139 38235 ft 462 kts 17°
2026-05-04 12:26 36.49702 -14.33027 38229 ft 462 kts 17°
2026-05-04 12:27 36.55624 -14.29911 38226 ft 462 kts 17°
2026-05-04 12:27 36.61547 -14.26790 38260 ft 462 kts 17°
2026-05-04 12:28 36.67372 -14.23411 38228 ft 465 kts 24°
2026-05-04 12:28 36.72983 -14.19394 38229 ft 465 kts 24°
2026-05-04 12:29 36.78604 -14.15393 38228 ft 465 kts 24°
2026-05-04 12:29 36.84195 -14.11399 38229 ft 466 kts 24°
2026-05-04 12:30 36.89814 -14.07365 38255 ft 466 kts 24°
2026-05-04 12:30 36.95428 -14.03333 38244 ft 465 kts 24°
2026-05-04 12:31 37.01034 -13.99302 38236 ft 464 kts 24°
2026-05-04 12:31 37.06632 -13.95263 38234 ft 464 kts 24°
2026-05-04 12:32 37.15029 -13.89205 38245 ft 464 kts 24°
2026-05-04 12:33 37.20618 -13.85173 38253 ft 463 kts 24°
2026-05-04 12:33 37.25257 -13.81812 38239 ft 463 kts 24°
2026-05-04 12:34 37.30831 -13.77755 38228 ft 462 kts 24°
2026-05-04 12:34 37.36397 -13.73699 38224 ft 462 kts 25°
2026-05-04 12:35 37.41963 -13.69639 38242 ft 462 kts 24°
2026-05-04 12:35 37.47522 -13.65593 38234 ft 462 kts 24°
2026-05-04 12:36 37.53090 -13.61533 38223 ft 462 kts 24°
2026-05-04 12:36 37.58648 -13.57466 38222 ft 462 kts 24°
2026-05-04 12:37 37.64200 -13.53386 38220 ft 462 kts 24°
2026-05-04 12:37 37.69715 -13.49329 38225 ft 462 kts 24°
2026-05-04 12:38 37.75275 -13.45234 38220 ft 462 kts 24°
2026-05-04 12:38 37.80861 -13.41117 38219 ft 462 kts 24°
2026-05-04 12:39 37.86380 -13.37042 38214 ft 462 kts 24°
2026-05-04 12:39 37.91940 -13.32926 38199 ft 462 kts 24°
2026-05-04 12:40 37.97475 -13.28823 38194 ft 461 kts 24°
2026-05-04 12:40 38.03018 -13.24709 38200 ft 461 kts 24°
2026-05-04 12:41 38.08562 -13.20593 38209 ft 462 kts 24°
2026-05-04 12:41 38.14106 -13.16456 38211 ft 462 kts 24°
2026-05-04 12:42 38.19653 -13.12317 38223 ft 462 kts 24°
2026-05-04 12:42 38.25183 -13.08186 38201 ft 460 kts 24°
2026-05-04 12:43 38.30671 -13.04072 38203 ft 461 kts 24°
2026-05-04 12:43 38.36201 -12.99921 38206 ft 461 kts 24°
2026-05-04 12:44 38.41737 -12.95766 38229 ft 462 kts 24°
2026-05-04 12:44 38.47275 -12.91595 38215 ft 462 kts 24°
2026-05-04 12:45 38.52805 -12.87427 38208 ft 461 kts 24°
2026-05-04 12:45 38.58335 -12.83242 38206 ft 461 kts 24°
2026-05-04 12:46 38.63821 -12.79086 38205 ft 461 kts 24°
2026-05-04 12:46 38.69338 -12.74893 38198 ft 460 kts 24°
2026-05-04 12:47 38.74838 -12.70713 38193 ft 460 kts 24°
2026-05-04 12:47 38.80347 -12.66516 38193 ft 460 kts 24°
2026-05-04 12:48 38.85861 -12.62314 38187 ft 461 kts 24°
2026-05-04 12:48 38.91369 -12.58103 38214 ft 461 kts 24°
2026-05-04 12:49 38.96878 -12.53889 38207 ft 461 kts 24°
2026-05-04 12:49 39.02346 -12.49692 38203 ft 461 kts 24°
2026-05-04 12:50 39.07846 -12.45459 38194 ft 461 kts 24°
2026-05-04 12:50 39.13353 -12.41223 38193 ft 461 kts 24°
2026-05-04 12:51 39.18856 -12.36984 38170 ft 460 kts 24°
2026-05-04 12:51 39.24353 -12.32739 38164 ft 461 kts 24°
2026-05-04 12:52 39.29855 -12.28479 38171 ft 461 kts 24°
2026-05-04 12:52 39.35363 -12.24206 38174 ft 462 kts 24°
2026-05-04 12:53 39.40821 -12.19795 38196 ft 467 kts 32°
2026-05-04 12:53 39.45856 -12.14417 38187 ft 470 kts 34°
2026-05-04 12:54 39.50885 -12.09004 38185 ft 470 kts 33°
2026-05-04 12:54 39.55922 -12.03586 38196 ft 471 kts 34°
2026-05-04 12:55 39.60924 -11.98185 38184 ft 471 kts 34°
2026-05-04 12:55 39.65977 -11.92743 38204 ft 472 kts 34°
2026-05-04 12:56 39.71027 -11.87284 38192 ft 472 kts 34°
2026-05-04 12:56 39.76062 -11.81829 38187 ft 472 kts 34°
2026-05-04 12:57 39.81105 -11.76351 38183 ft 472 kts 34°
2026-05-04 12:57 39.86144 -11.70862 38171 ft 473 kts 34°
2026-05-04 12:58 39.91185 -11.65362 38188 ft 473 kts 34°
2026-05-04 12:58 39.96232 -11.59846 38175 ft 473 kts 34°
2026-05-04 12:59 40.01271 -11.54326 38176 ft 473 kts 34°
2026-05-04 12:59 40.06314 -11.48792 38172 ft 473 kts 34°
2026-05-04 13:00 40.11315 -11.43295 38169 ft 473 kts 34°
2026-05-04 13:00 40.16348 -11.37755 38169 ft 473 kts 34°
2026-05-04 13:01 40.21375 -11.32202 38178 ft 473 kts 34°
2026-05-04 13:01 40.26403 -11.26627 38176 ft 473 kts 35°
2026-05-04 13:02 40.31433 -11.21062 38169 ft 473 kts 35°
2026-05-04 13:02 40.36462 -11.15484 38165 ft 474 kts 35°
2026-05-04 13:03 40.41483 -11.09890 38183 ft 473 kts 35°
2026-05-04 13:03 40.46506 -11.04301 38171 ft 473 kts 35°
2026-05-04 13:04 40.51523 -10.98699 38161 ft 473 kts 35°
2026-05-04 13:04 40.56534 -10.93082 38174 ft 473 kts 35°
2026-05-04 13:05 40.61543 -10.87452 38165 ft 474 kts 36°
2026-05-04 13:05 40.66555 -10.81816 38173 ft 474 kts 36°
2026-05-04 13:06 40.71567 -10.76178 38157 ft 474 kts 36°
2026-05-04 13:06 40.76550 -10.70559 38153 ft 474 kts 36°
2026-05-04 13:07 40.81548 -10.64902 38144 ft 474 kts 36°
2026-05-04 13:07 40.86547 -10.59230 38179 ft 474 kts 36°
2026-05-04 13:08 40.91541 -10.53544 38158 ft 474 kts 36°
2026-05-04 13:08 40.96544 -10.47862 38148 ft 474 kts 36°
2026-05-04 13:09 41.01551 -10.42160 38142 ft 474 kts 36°
2026-05-04 13:09 41.06549 -10.36453 38140 ft 474 kts 36°
2026-05-04 13:10 41.11539 -10.30739 38163 ft 474 kts 36°
2026-05-04 13:10 41.16537 -10.25004 38148 ft 474 kts 36°
2026-05-04 13:11 41.21522 -10.19259 38145 ft 474 kts 37°
2026-05-04 13:11 41.26508 -10.13508 38129 ft 475 kts 37°
2026-05-04 13:12 41.31466 -10.07788 38124 ft 475 kts 37°
2026-05-04 13:12 41.36457 -10.02019 38141 ft 475 kts 37°
2026-05-04 13:13 41.41445 -9.96236 38128 ft 475 kts 37°
2026-05-04 13:13 41.46427 -9.90436 38129 ft 475 kts 37°
2026-05-04 13:14 41.51411 -9.84630 38123 ft 475 kts 37°
2026-05-04 13:14 41.56395 -9.78818 38122 ft 476 kts 37°
2026-05-04 13:15 41.61379 -9.72993 38132 ft 476 kts 37°
2026-05-04 13:15 41.66357 -9.67148 38121 ft 476 kts 37°
2026-05-04 13:16 41.71335 -9.61282 38115 ft 476 kts 37°
2026-05-04 13:16 41.76321 -9.55422 38112 ft 476 kts 37°
2026-05-04 13:17 41.81299 -9.49559 38132 ft 476 kts 37°
2026-05-04 13:17 41.86274 -9.43683 38135 ft 477 kts 38°
2026-05-04 13:18 41.91244 -9.37788 38118 ft 477 kts 38°
2026-05-04 13:18 41.95367 -9.32861 38111 ft 477 kts 38°
2026-05-04 13:19 42.00299 -9.26877 38111 ft 478 kts 38°
2026-05-04 13:19 42.05220 -9.20869 38118 ft 478 kts 39°
2026-05-04 13:20 42.10144 -9.14859 38107 ft 478 kts 38°
2026-05-04 13:20 42.15074 -9.08844 38106 ft 478 kts 39°
2026-05-04 13:21 42.19998 -9.02823 38098 ft 478 kts 39°
2026-05-04 13:21 42.24889 -8.96824 38101 ft 478 kts 39°
2026-05-04 13:22 42.29812 -8.90774 38108 ft 478 kts 39°
2026-05-04 13:22 42.34734 -8.84709 38107 ft 478 kts 39°
2026-05-04 13:23 42.39649 -8.78648 38101 ft 478 kts 39°
2026-05-04 13:23 42.44565 -8.72579 38097 ft 478 kts 39°
2026-05-04 13:24 42.49472 -8.66506 38091 ft 478 kts 39°
2026-05-04 13:24 42.54371 -8.60404 38086 ft 478 kts 39°
2026-05-04 13:25 42.61722 -8.51239 38080 ft 478 kts 39°
2026-05-04 13:25 42.66620 -8.45115 38077 ft 478 kts 39°
2026-05-04 13:26 42.71517 -8.38986 38095 ft 478 kts 39°
2026-05-04 13:26 42.76374 -8.32886 38086 ft 478 kts 40°
2026-05-04 13:27 42.81258 -8.26740 38080 ft 478 kts 40°
2026-05-04 13:27 42.86141 -8.20585 38078 ft 478 kts 40°
2026-05-04 13:28 42.91020 -8.14425 38077 ft 478 kts 40°
2026-05-04 13:28 42.95894 -8.08257 38085 ft 478 kts 40°
2026-05-04 13:29 43.00761 -8.02082 38077 ft 477 kts 40°
2026-05-04 13:29 43.05623 -7.95901 38073 ft 477 kts 40°
2026-05-04 13:30 43.10478 -7.89710 38067 ft 477 kts 40°
2026-05-04 13:30 43.15328 -7.83504 38067 ft 477 kts 40°
2026-05-04 13:31 43.20173 -7.77294 38077 ft 477 kts 40°
2026-05-04 13:31 43.25014 -7.71076 38072 ft 476 kts 40°
2026-05-04 13:32 43.29818 -7.64900 38066 ft 476 kts 41°
2026-05-04 13:32 43.34642 -7.58679 38063 ft 476 kts 41°
2026-05-04 13:33 43.39468 -7.52441 38069 ft 476 kts 41°
2026-05-04 13:33 43.44284 -7.46200 38060 ft 475 kts 41°
2026-05-04 13:34 43.49097 -7.39952 38064 ft 475 kts 41°
2026-05-04 13:34 43.53909 -7.33694 38053 ft 476 kts 41°
2026-05-04 13:35 43.61113 -7.24276 38068 ft 476 kts 41°
2026-05-04 13:36 43.65913 -7.17985 38064 ft 476 kts 41°
2026-05-04 13:36 43.70713 -7.11687 38063 ft 476 kts 41°
2026-05-04 13:37 43.75514 -7.05382 38051 ft 476 kts 42°
2026-05-04 13:37 43.80312 -6.99062 38054 ft 476 kts 42°
2026-05-04 13:38 43.85073 -6.92771 38057 ft 476 kts 42°
2026-05-04 13:38 43.89860 -6.86431 38056 ft 476 kts 42°
2026-05-04 13:39 43.94648 -6.80077 38047 ft 476 kts 42°
2026-05-04 13:39 43.99426 -6.73720 38048 ft 476 kts 42°
2026-05-04 13:40 44.04195 -6.67362 38058 ft 476 kts 43°
2026-05-04 13:40 44.08961 -6.60986 38052 ft 475 kts 43°
2026-05-04 13:41 44.13719 -6.54606 38046 ft 475 kts 43°
2026-05-04 13:41 44.18470 -6.48219 38044 ft 474 kts 43°
2026-05-04 13:42 44.25596 -6.38632 38044 ft 475 kts 43°
2026-05-04 13:42 44.30345 -6.32212 38041 ft 475 kts 43°
2026-05-04 13:43 44.35083 -6.25787 38040 ft 475 kts 43°
2026-05-04 13:43 44.39820 -6.19359 38040 ft 474 kts 43°
2026-05-04 13:44 44.44520 -6.12964 38038 ft 474 kts 43°
2026-05-04 13:44 44.49244 -6.06514 38034 ft 474 kts 44°
2026-05-04 13:45 44.53963 -6.00052 38032 ft 474 kts 44°
2026-05-04 13:45 44.58684 -5.93582 38032 ft 474 kts 44°
2026-05-04 13:46 44.63403 -5.87109 38030 ft 474 kts 44°
2026-05-04 13:46 44.68123 -5.80616 38030 ft 474 kts 44°
2026-05-04 13:47 44.72851 -5.74144 38027 ft 474 kts 44°
2026-05-04 13:47 44.77586 -5.67672 38019 ft 475 kts 44°
2026-05-04 13:48 44.82320 -5.61176 38023 ft 475 kts 44°
2026-05-04 13:48 44.86824 -5.54961 38038 ft 476 kts 44°
2026-05-04 13:49 44.91549 -5.48422 38037 ft 476 kts 44°
2026-05-04 13:49 44.96272 -5.41878 38036 ft 476 kts 44°
2026-05-04 13:50 45.00987 -5.35330 38020 ft 475 kts 44°
2026-05-04 13:50 45.05673 -5.28829 38020 ft 475 kts 44°
2026-05-04 13:51 45.10380 -5.22260 38030 ft 475 kts 44°
2026-05-04 13:51 45.15075 -5.15681 38029 ft 475 kts 44°
2026-05-04 13:52 45.22121 -5.05809 38026 ft 474 kts 44°
2026-05-04 13:53 45.26806 -4.99213 38013 ft 474 kts 45°
2026-05-04 13:53 45.31492 -4.92609 38025 ft 474 kts 45°
2026-05-04 13:54 45.38510 -4.82692 38025 ft 474 kts 45°
2026-05-04 13:55 45.45476 -4.72796 38024 ft 473 kts 45°
2026-05-04 13:55 45.52468 -4.62840 38015 ft 473 kts 45°
2026-05-04 13:56 45.57118 -4.56200 38016 ft 473 kts 45°
2026-05-04 13:57 45.64076 -4.46212 38017 ft 473 kts 45°
2026-05-04 13:58 45.73337 -4.32873 38021 ft 472 kts 46°
2026-05-04 13:58 45.80263 -4.22843 38016 ft 471 kts 46°
2026-05-04 13:59 45.84873 -4.16159 38013 ft 471 kts 46°
2026-05-04 14:00 45.91745 -4.06156 38016 ft 471 kts 46°
2026-05-04 14:00 45.98637 -3.96091 38009 ft 471 kts 46°
2026-05-04 14:01 46.03233 -3.89375 38006 ft 471 kts 46°
2026-05-04 14:02 46.10108 -3.79254 38007 ft 471 kts 46°
2026-05-04 14:02 46.14695 -3.72490 38011 ft 471 kts 46°
2026-05-04 14:03 46.19271 -3.65728 38012 ft 471 kts 46°
2026-05-04 14:03 46.23855 -3.58946 38004 ft 471 kts 46°
2026-05-04 14:04 46.30722 -3.48736 37996 ft 472 kts 47°
2026-05-04 14:04 46.35271 -3.41958 38002 ft 472 kts 47°
2026-05-04 14:05 46.42108 -3.31712 38001 ft 471 kts 47°
2026-05-04 14:06 46.45922 -3.25975 38001 ft 471 kts 47°
2026-05-04 14:06 46.50477 -3.19131 37988 ft 471 kts 47°
2026-05-04 14:07 46.55030 -3.12280 37996 ft 471 kts 47°
2026-05-04 14:07 46.58821 -3.04675 38006 ft 468 kts 61°
2026-05-04 14:08 46.62090 -2.96510 37996 ft 467 kts 61°
2026-05-04 14:08 46.65371 -2.88340 37996 ft 467 kts 61°
2026-05-04 14:09 46.70281 -2.76052 38005 ft 468 kts 62°
2026-05-04 14:10 46.75179 -2.63759 37998 ft 467 kts 62°
2026-05-04 14:10 46.78434 -2.55554 37992 ft 467 kts 62°
2026-05-04 14:11 46.81676 -2.47329 37998 ft 468 kts 62°
2026-05-04 14:11 46.86819 -2.35228 37976 ft 471 kts 51°
2026-05-04 14:12 46.91387 -2.28345 37977 ft 472 kts 46°
2026-05-04 14:13 46.98313 -2.18071 37976 ft 473 kts 47°
2026-05-04 14:13 47.02934 -2.11182 37969 ft 474 kts 47°
2026-05-04 14:14 47.07547 -2.04293 37950 ft 474 kts 47°
2026-05-04 14:14 47.14470 -1.93896 37965 ft 475 kts 47°
2026-05-04 14:15 47.23708 -1.79988 37988 ft 475 kts 47°
2026-05-04 14:16 47.30635 -1.69527 37989 ft 476 kts 47°
2026-05-04 14:17 47.37510 -1.59067 37974 ft 475 kts 47°
2026-05-04 14:18 47.44432 -1.48504 37977 ft 475 kts 47°
2026-05-04 14:19 47.53573 -1.34487 37968 ft 475 kts 47°
2026-05-04 14:19 47.58154 -1.27442 37969 ft 475 kts 47°
2026-05-04 14:20 47.62727 -1.20385 37962 ft 475 kts 47°
2026-05-04 14:20 47.67303 -1.13315 37965 ft 474 kts 47°
2026-05-04 14:21 47.74153 -1.02709 37970 ft 474 kts 47°
2026-05-04 14:21 47.78704 -0.95598 37972 ft 474 kts 48°
2026-05-04 14:22 47.83246 -0.88493 37984 ft 474 kts 48°
2026-05-04 14:22 47.87790 -0.81384 37964 ft 474 kts 47°
2026-05-04 14:23 47.94586 -0.70717 37963 ft 475 kts 47°
2026-05-04 14:24 47.99159 -0.63512 37966 ft 476 kts 48°
2026-05-04 14:24 48.03673 -0.56368 37973 ft 476 kts 47°
2026-05-04 14:25 48.08219 -0.49164 37975 ft 476 kts 48°
2026-05-04 14:25 48.15030 -0.38323 37971 ft 477 kts 48°
2026-05-04 14:26 48.19570 -0.31066 37970 ft 477 kts 48°
2026-05-04 14:26 48.24105 -0.23804 37982 ft 477 kts 48°
2026-05-04 14:27 48.28634 -0.16543 37984 ft 476 kts 48°
2026-05-04 14:27 48.33144 -0.09275 37983 ft 475 kts 48°
2026-05-04 14:28 48.37636 -0.01987 37978 ft 475 kts 49°
2026-05-04 14:28 48.41996 0.05467 37971 ft 474 kts 51°
2026-05-04 14:29 48.50586 0.20581 37982 ft 474 kts 50°
2026-05-04 14:30 48.54914 0.28094 37981 ft 474 kts 50°
2026-05-04 14:31 48.61368 0.39331 37986 ft 474 kts 50°
2026-05-04 14:32 48.69975 0.54457 37986 ft 474 kts 50°
2026-05-04 14:32 48.74271 0.62042 37986 ft 474 kts 50°
2026-05-04 14:33 48.78561 0.69634 37987 ft 475 kts 50°
2026-05-04 14:33 48.82855 0.77258 37985 ft 474 kts 50°
2026-05-04 14:34 48.87137 0.84881 37986 ft 474 kts 51°
2026-05-04 14:34 48.91416 0.92510 37968 ft 474 kts 51°
2026-05-04 14:35 48.95698 1.00168 37977 ft 475 kts 51°
2026-05-04 14:35 48.99977 1.07837 37986 ft 475 kts 51°
2026-05-04 14:36 49.04249 1.15513 37981 ft 475 kts 51°
2026-05-04 14:36 49.08517 1.23219 37998 ft 475 kts 51°
2026-05-04 14:37 49.12773 1.30930 37991 ft 474 kts 51°
2026-05-04 14:37 49.17016 1.38637 37989 ft 474 kts 51°
2026-05-04 14:38 49.21248 1.46352 37984 ft 473 kts 51°
2026-05-04 14:38 49.25472 1.54076 37990 ft 473 kts 50°
2026-05-04 14:39 49.30160 1.61172 37984 ft 473 kts 44°
2026-05-04 14:39 49.34901 1.68080 37994 ft 473 kts 44°
2026-05-04 14:40 49.42056 1.78546 37976 ft 472 kts 44°
2026-05-04 14:40 49.46797 1.85527 37965 ft 472 kts 44°
2026-05-04 14:41 49.51529 1.92513 37962 ft 472 kts 44°
2026-05-04 14:42 49.60991 2.06536 37968 ft 472 kts 44°
2026-05-04 14:42 49.65715 2.13566 37970 ft 472 kts 45°
2026-05-04 14:43 49.70430 2.20612 37971 ft 471 kts 45°
2026-05-04 14:43 49.75140 2.27663 37956 ft 471 kts 45°
2026-05-04 14:44 49.79849 2.34730 37964 ft 471 kts 45°
2026-05-04 14:44 49.84551 2.41798 37969 ft 472 kts 45°
2026-05-04 14:45 49.89253 2.48887 37967 ft 471 kts 45°
2026-05-04 14:45 49.93952 2.56010 37990 ft 471 kts 45°
2026-05-04 14:46 49.98607 2.63088 37999 ft 472 kts 45°
2026-05-04 14:46 50.03292 2.70216 37934 ft 472 kts 45°
2026-05-04 14:47 50.05638 2.73788 37327 ft 472 kts 45°
2026-05-04 14:47 50.07985 2.77367 36598 ft 473 kts 45°
2026-05-04 14:47 50.10335 2.80958 35817 ft 474 kts 46°
2026-05-04 14:47 50.12696 2.84578 34957 ft 478 kts 46°
2026-05-04 14:48 50.15077 2.88234 34044 ft 483 kts 47°
2026-05-04 14:48 50.17477 2.91930 33028 ft 486 kts 47°
2026-05-04 14:48 50.19863 2.95609 32481 ft 479 kts 47°
2026-05-04 14:48 50.22226 2.99254 31851 ft 474 kts 47°
2026-05-04 14:49 50.23779 3.01650 31437 ft 471 kts 47°
2026-05-04 14:49 50.26103 3.05240 30821 ft 467 kts 46°
2026-05-04 14:49 50.28332 3.08691 30232 ft 463 kts 46°
2026-05-04 14:49 50.30611 3.12223 29571 ft 459 kts 46°
2026-05-04 14:50 50.32865 3.15720 28996 ft 453 kts 46°
2026-05-04 14:50 50.35099 3.19185 28401 ft 448 kts 46°
2026-05-04 14:50 50.37298 3.22607 27831 ft 443 kts 46°
2026-05-04 14:50 50.39471 3.25995 27264 ft 438 kts 46°
2026-05-04 14:51 50.41621 3.29346 26744 ft 433 kts 46°
2026-05-04 14:51 50.43743 3.32654 26225 ft 428 kts 46°
2026-05-04 14:51 50.45848 3.35944 25729 ft 424 kts 46°
2026-05-04 14:51 50.47899 3.39160 25232 ft 419 kts 46°
2026-05-04 14:52 50.49955 3.42393 24760 ft 415 kts 46°
2026-05-04 14:52 50.51987 3.45589 24290 ft 411 kts 46°
2026-05-04 14:52 50.53988 3.48738 23805 ft 409 kts 45°
2026-05-04 14:52 50.56133 3.51678 23289 ft 406 kts 39°
2026-05-04 14:53 50.58310 3.54478 22787 ft 402 kts 39°
2026-05-04 14:53 50.60463 3.57255 22315 ft 398 kts 39°
2026-05-04 14:53 50.62590 3.60004 21829 ft 394 kts 39°
2026-05-04 14:53 50.64701 3.62734 21342 ft 391 kts 39°
2026-05-04 14:54 50.66793 3.65442 20861 ft 388 kts 39°
2026-05-04 14:54 50.68869 3.68133 20375 ft 385 kts 39°
2026-05-04 14:54 50.70934 3.70813 19885 ft 382 kts 39°
2026-05-04 14:54 50.72981 3.73474 19400 ft 380 kts 39°
2026-05-04 14:55 50.75017 3.76120 18915 ft 378 kts 40°
2026-05-04 14:55 50.77042 3.78754 18442 ft 376 kts 40°
2026-05-04 14:55 50.79032 3.81348 17922 ft 374 kts 40°
2026-05-04 14:55 50.81032 3.83963 17441 ft 371 kts 40°
2026-05-04 14:56 50.83014 3.86556 16974 ft 367 kts 39°
2026-05-04 14:56 50.84975 3.89119 16513 ft 364 kts 39°
2026-05-04 14:56 50.86921 3.91666 16047 ft 361 kts 39°
2026-05-04 14:56 50.88848 3.94192 15603 ft 358 kts 39°
2026-05-04 14:57 50.90753 3.96718 15154 ft 356 kts 43°
2026-05-04 14:57 50.92388 3.99640 14707 ft 354 kts 56°
2026-05-04 14:57 50.93565 4.03036 14259 ft 352 kts 68°
2026-05-04 14:57 50.94405 4.06683 13804 ft 350 kts 71°
2026-05-04 14:58 50.95229 4.10310 13314 ft 348 kts 70°
2026-05-04 14:58 50.96053 4.13907 12852 ft 345 kts 70°
2026-05-04 14:58 50.96862 4.17427 12404 ft 342 kts 70°
2026-05-04 14:58 50.97672 4.20962 11952 ft 339 kts 70°
2026-05-04 14:59 50.98474 4.24466 11494 ft 336 kts 70°
2026-05-04 14:59 50.99267 4.27945 11031 ft 334 kts 70°
2026-05-04 14:59 51.00826 4.34824 10197 ft 326 kts 71°
2026-05-04 15:00 51.01576 4.38150 10062 ft 313 kts 70°
2026-05-04 15:00 51.02296 4.41347 9946 ft 301 kts 71°
2026-05-04 15:00 51.02988 4.44440 9695 ft 294 kts 71°
2026-05-04 15:01 51.04356 4.50561 8894 ft 291 kts 70°
2026-05-04 15:01 51.05038 4.53589 8486 ft 289 kts 70°
2026-05-04 15:01 51.05718 4.56611 8080 ft 287 kts 70°
2026-05-04 15:01 51.06379 4.59555 7452 ft 283 kts 70°
2026-05-04 15:02 51.07036 4.62491 6783 ft 281 kts 70°
2026-05-04 15:02 51.07678 4.65364 6429 ft 266 kts 70°
2026-05-04 15:02 51.08067 4.68153 6008 ft 255 kts 92°
2026-05-04 15:02 51.07622 4.70812 5878 ft 252 kts 120°
2026-05-04 15:03 51.06451 4.72876 5438 ft 258 kts 149°
2026-05-04 15:03 51.04810 4.73924 5089 ft 251 kts 161°
2026-05-04 15:03 51.03174 4.74842 4474 ft 249 kts 160°
2026-05-04 15:03 51.01561 4.75777 4019 ft 240 kts 160°
2026-05-04 15:04 51.00058 4.76658 3877 ft 221 kts 160°
2026-05-04 15:04 50.98654 4.77339 3635 ft 210 kts 174°
2026-05-04 15:04 50.97246 4.77198 3465 ft 198 kts 195°
2026-05-04 15:04 50.96041 4.76291 3298 ft 187 kts 217°
2026-05-04 15:05 50.95174 4.74871 3128 ft 174 kts 237°
2026-05-04 15:05 50.94671 4.73185 2923 ft 165 kts 250°
2026-05-04 15:05 50.94290 4.71510 2737 ft 157 kts 251°
2026-05-04 15:05 50.93927 4.69922 2517 ft 148 kts 251°
2026-05-04 15:06 50.93581 4.68406 2309 ft 145 kts 252°
2026-05-04 15:06 50.93239 4.66909 2116 ft 143 kts 252°
2026-05-04 15:06 50.92900 4.65429 1920 ft 142 kts 251°
2026-05-04 15:07 50.92225 4.62471 1540 ft 145 kts 251°
2026-05-04 15:07 50.91880 4.60961 1335 ft 147 kts 251°
2026-05-04 15:07 50.91529 4.59444 1131 ft 146 kts 251°
2026-05-04 15:07 50.91184 4.57939 945 ft 146 kts 251°
2026-05-04 15:08 50.90833 4.56433 745 ft 146 kts 251°
2026-05-04 15:08 50.90492 4.54949 548 ft 145 kts 251°
2026-05-04 15:08 50.90151 4.53444 358 ft 143 kts 252°
2026-05-04 15:08 50.89840 4.52111 208 ft 138 kts 252°
2026-05-04 15:09 50.89625 4.51101 174 ft 87 kts 251°
2026-05-04 15:09 50.89526 4.50678 175 ft 24 kts 249°
2026-05-04 15:09 50.89518 4.50645 175 ft 0 kts 249°
2026-05-04 15:10 50.89500 4.50566 175 ft 5 kts 252°
2026-05-04 15:10 50.89493 4.50524 175 ft 4 kts 254°
2026-05-04 15:10 50.89487 4.50428 176 ft 12 kts 270°
2026-05-04 15:11 50.89499 4.50284 174 ft 14 kts 279°
2026-05-04 15:11 50.89518 4.50113 171 ft 17 kts 281°
2026-05-04 15:11 50.89532 4.49922 168 ft 17 kts 264°
2026-05-04 15:11 50.89495 4.49739 168 ft 18 kts 249°
2026-05-04 15:12 50.89454 4.49543 167 ft 19 kts 271°
2026-05-04 15:12 50.89517 4.49344 163 ft 22 kts 309°
2026-05-04 15:12 50.89605 4.49181 155 ft 19 kts 314°
2026-05-04 15:12 50.89684 4.49161 150 ft 14 kts 14°
2026-05-04 15:13 50.89798 4.49209 144 ft 18 kts 15°
2026-05-04 15:13 50.89932 4.49265 136 ft 23 kts 15°
2026-05-04 15:13 50.90043 4.49311 128 ft 10 kts 14°
2026-05-04 15:13 50.90120 4.49342 131 ft 12 kts 15°
2026-05-04 15:14 50.90214 4.49381 123 ft 16 kts 13°
2026-05-04 15:14 50.90313 4.49402 125 ft 14 kts 344°
2026-05-04 15:14 50.90385 4.49311 125 ft 13 kts 296°
2026-05-04 15:14 50.90361 4.49163 121 ft 15 kts 241°
2026-05-04 15:15 50.90313 4.49006 123 ft 16 kts 245°
2026-05-04 15:15 50.90267 4.48853 124 ft 13 kts 245°
2026-05-04 15:15 50.90233 4.48734 123 ft 6 kts 245°
2026-05-04 15:16 50.90281 4.48639 121 ft 4 kts 335°
2026-05-04 15:16 50.90293 4.48631 120 ft 1 kts 335°
2026-05-04 15:16 50.90294 4.48630 117 ft 0 kts 335°